Temperature
9 9 9 9 9 9 9 9 9 9 9 9 10 10 10 10 10 10 11 11 11 11 12 12 13 13 14 14 14 14 14 15 16 16 15 14 14 14 15 15 15 16 16
9 8 8 8 8 8 8 8 8 8 8 9 9 9 10 10 10 10 10 10 10 10 11 11 12 12 13 13 13 14 14 14 15 15 15 14 14 14 14 14 15 15 15
8 8 7 7 7 7 7 7 7 7 7 8 8 9 9 9 10 10 10 10 10 10 10 10 11 11 12 12 13 13 13 14 14 14 14 14 14 14 14 14 14 14 14
7 7 7 7 7 6 6 6 6 6 7 7 7 8 8 9 9 9 10 10 10 10 10 10 10 10 11 11 12 13 13 13 13 14 14 14 14 13 13 13 13 13 13
7 7 7 6 6 6 6 6 6 6 6 6 7 7 8 8 9 9 9 10 9 9 9 9 10 10 10 11 11 11 12 13 13 13 14 14 14 13 13 12 12 12 12
6 6 6 6 6 6 6 6 6 6 6 6 6 6 7 8 9 9 9 9 9 9 9 9 9 9 10 10 10 11 11 12 12 13 13 14 14 13 13 12 12 12 11
6 6 6 6 6 6 5 5 5 5 5 5 5 6 6 7 8 8 9 9 9 9 9 9 9 10 9 9 10 10 10 11 11 12 13 13 13 13 13 12 12 12 12
6 6 6 5 5 5 5 5 5 5 5 5 5 5 6 6 7 8 8 8 9 9 9 9 9 9 9 9 9 10 10 10 11 11 12 12 13 13 13 13 12 12 11
6 6 5 5 5 5 5 5 5 4 4 5 5 5 5 6 7 7 8 8 8 8 8 9 9 9 9 9 9 9 10 10 10 11 11 12 12 12 12 12 12 11 11
6 5 5 5 5 5 5 5 5 4 4 4 4 5 5 5 6 7 7 7 8 8 8 8 8 9 9 9 9 9 9 10 10 10 11 11 12 12 12 12 12 11 11
5 5 5 5 5 5 5 5 5 4 4 4 4 5 5 5 6 6 7 7 8 8 9 9 9 9 9 9 9 9 9 9 10 10 11 11 11 11 12 12 12 12 12
5 5 5 5 5 5 5 5 5 5 4 4 4 5 5 5 6 6 6 7 7 8 8 9 9 9 9 9 9 9 9 9 9 10 10 11 11 11 11 11 11 11 11
5 5 5 5 5 5 5 5 5 5 5 4 4 5 5 5 5 6 6 7 7 7 8 8 8 8 8 8 9 9 9 9 9 10 10 11 11 11 11 11 11 11 11
6 5 5 6 6 5 5 5 5 5 5 5 5 5 5 5 5 6 6 6 7 7 7 7 8 8 8 8 8 9 9 9 10 10 10 11 11 11 11 11 10 10 10
6 6 6 6 6 5 6 5 5 5 5 4 5 5 5 5 5 6 6 6 7 7 7 7 8 8 8 8 9 9 9 9 9 10 10 10 10 10 10 10 10 10 9
6 6 6 6 6 6 6 6 6 5 5 5 5 5 5 5 5 6 6 6 7 7 7 7 8 8 9 9 9 9 9 9 9 10 10 10 10 10 10 10 10 9 9
6 6 6 6 6 6 6 6 6 5 5 5 5 5 5 5 5 6 6 6 6 7 7 8 8 8 9 9 9 9 9 9 9 9 10 10 10 10 10 9 9 9 9
6 6 6 6 7 7 7 7 6 6 6 5 5 5 5 5 6 6 6 6 6 7 7 7 8 8 9 9 9 9 9 9 9 9 9 10 10 10 9 9 9 9 9
6 6 6 7 7 7 7 7 7 6 6 6 6 6 6 6 6 6 6 6 7 7 7 8 8 8 9 9 8 8 8 9 9 9 9 9 9 9 9 9 9 9 10
7 6 6 7 7 8 8 7 7 6 6 6 6 6 6 6 6 6 6 6 7 7 7 8 8 8 8 8 8 8 8 8 8 9 9 9 9 9 9 9 9 9 10
7 7 7 7 8 8 8 8 7 7 6 6 6 6 6 6 6 6 6 7 7 7 7 8 8 8 8 8 8 8 8 8 8 8 9 9 9 9 9 9 9 10 10
7 7 7 7 8 8 8 8 7 7 7 7 7 6 6 6 7 7 7 7 7 7 7 7 8 8 8 8 7 7 8 8 8 8 8 9 9 9 10 10 10 10 11
7 7 7 7 8 8 8 8 8 7 7 7 7 7 7 7 7 7 7 7 7 7 7 7 7 7 7 7 7 7 7 8 8 8 9 9 9 9 10 10 10 11 11
7 7 7 7 8 8 8 8 8 7 7 7 7 7 7 7 7 7 7 7 7 7 7 7 7 7 7 7 7 7 7 8 8 8 9 9 9 10 10 10 11 11 11
7 7 7 7 7 8 8 8 8 7 7 7 7 7 7 7 7 7 7 7 7 7 7 7 7 7 7 7 7 7 8 8 8 9 9 10 10 10 10 10 11 11 11
7 7 7 7 7 8 8 8 8 8 7 7 7 7 7 8 8 8 7 7 7 7 7 7 7 7 7 8 8 8 8 8 9 9 10 10 10 10 10 11 11 11 11
Wind_Speed
17 16 17 16 17 17 16 16 16 16 16 16 16 16 15 14 13 11 11 9 9 9 9 11 12 13 11 11 11 11 10 10 9 6 6 4 3 3 4 4 5 5 8
17 17 18 17 18 18 18 17 17 17 16 17 17 17 17 17 16 15 14 12 11 11 10 9 10 10 13 12 11 13 11 11 10 9 7 6 6 6 6 5 5 7 9
18 18 18 18 18 18 18 18 17 17 17 17 17 18 18 18 18 17 16 15 13 13 12 12 11 9 11 10 11 12 11 11 11 9 8 6 6 7 7 7 8 7 9
18 18 18 18 18 18 18 18 18 18 18 18 18 18 18 19 19 18 17 16 15 14 13 12 11 10 10 9 9 10 10 11 11 10 9 8 8 9 8 7 6 6 7
18 19 19 19 19 19 18 18 18 18 18 18 18 18 18 18 18 18 18 17 17 15 14 13 13 12 11 8 7 8 8 9 10 11 10 9 9 10 9 7 8 7 6
18 19 19 19 19 19 19 19 18 18 18 18 18 18 18 18 16 15 16 17 16 16 15 14 13 13 13 13 12 9 9 10 10 10 10 11 11 11 10 10 10 9 5
18 19 19 19 20 20 20 20 19 19 18 18 18 18 18 19 14 14 16 17 16 15 15 13 12 12 14 13 13 12 11 12 11 9 10 11 11 11 13 14 13 11 7
18 18 19 19 20 20 20 20 19 17 17 16 16 17 17 17 15 15 15 17 17 16 15 14 14 12 12 12 12 11 11 12 13 11 11 11 9 9 14 14 13 10 11
18 18 19 19 20 20 20 19 18 17 16 16 15 16 15 15 14 15 15 15 15 16 15 15 14 14 12 11 11 11 11 10 12 13 12 9 6 6 10 12 14 13 9
18 19 19 19 19 19 19 18 16 15 15 14 14 13 13 13 12 15 16 13 14 13 12 13 13 12 10 13 12 12 11 11 10 12 12 10 9 10 14 16 16 15 11
18 18 19 18 18 18 17 15 15 14 13 12 12 11 10 10 11 14 15 12 11 12 11 11 11 14 11 12 12 11 9 8 10 11 11 11 11 11 14 14 15 16 15
17 18 18 18 17 15 16 15 14 12 11 10 8 8 6 5 7 11 13 11 8 10 10 9 7 14 13 12 11 10 7 7 9 10 10 11 11 12 11 12 11 9 6
17 17 17 17 16 14 14 14 12 9 8 7 5 5 4 4 6 10 12 11 10 9 8 3 4 11 11 11 12 11 10 10 10 11 11 11 10 12 12 10 10 10 9
16 16 15 15 15 13 11 10 9 8 7 5 4 4 3 4 6 8 10 11 11 11 11 8 9 9 9 8 9 11 11 11 11 11 10 9 9 11 12 12 12 13 12
16 14 14 13 13 12 11 9 8 7 6 6 5 4 3 3 2 1 5 8 9 10 10 10 11 11 11 12 11 10 10 10 11 11 10 10 11 11 12 13 14 14 12
14 13 12 11 11 11 10 8 2 3 3 3 5 5 3 2 3 1 2 2 1 3 7 10 10 11 11 11 11 10 10 10 10 10 10 11 12 13 13 14 14 15 16
13 13 11 11 11 10 10 9 7 2 3 3 3 4 4 3 2 2 4 4 4 7 9 10 10 10 10 10 9 9 9 8 8 9 11 12 13 14 15 16 15 15 15
14 12 11 10 10 9 9 8 7 6 4 1 3 4 2 0 1 3 6 7 6 8 10 9 9 9 9 8 8 8 7 7 8 9 11 13 14 15 16 16 16 17 17
13 10 10 11 10 8 8 7 6 6 4 3 2 3 3 3 5 5 6 6 6 7 8 8 8 8 8 7 7 7 7 7 8 9 11 13 15 16 17 17 16 18 18
11 12 11 11 10 8 7 7 6 5 4 3 3 2 0 2 2 4 5 5 5 6 6 6 6 6 5 6 6 7 7 7 9 9 11 13 15 16 17 18 17 18 17
10 10 11 11 8 8 7 6 6 6 4 3 3 3 5 3 1 2 3 3 4 4 4 5 5 5 5 5 6 7 8 8 9 10 11 13 15 16 16 16 17 17 16
10 9 8 9 8 7 8 6 5 5 4 4 2 1 2 3 1 1 2 3 3 3 3 3 3 3 4 5 6 7 8 9 9 11 11 13 13 15 15 16 16 15 14
10 10 9 8 8 6 6 5 5 5 4 3 3 2 1 2 2 2 3 3 2 1 1 1 2 1 3 4 5 6 8 9 9 11 12 14 14 14 14 15 17 17 16
10 10 9 8 7 7 5 5 4 4 4 4 3 3 3 3 3 3 3 2 1 1 1 1 1 3 5 6 6 6 8 9 10 11 15 15 15 14 14 15 16 17 16
10 9 9 8 8 7 5 4 4 3 3 2 2 3 3 3 2 2 2 3 3 2 3 3 3 5 7 8 9 9 9 9 8 11 14 14 16 16 16 16 15 15 15
10 9 8 8 7 7 5 4 3 2 2 2 2 2 3 3 3 3 3 3 4 4 4 4 6 7 9 9 11 11 9 8 7 6 11 14 15 15 15 14 16 15 16
Wind_Direction
316 315 311 307 305 301 295 289 286 283 281 274 267 261 256 251 243 236 242 242 245 255 261 260 253 248 241 231 224 221 220 225 231 212 188 170 177 175 128 104 83 78 81
315 312 309 306 303 300 298 297 293 286 279 273 267 261 256 252 245 239 238 239 240 243 247 253 257 251 243 239 231 223 218 217 222 221 200 192 183 163 137 118 99 82 82
313 310 308 307 306 304 302 298 294 289 281 274 268 261 255 252 248 241 238 237 237 239 239 240 245 247 247 240 237 231 222 214 218 218 207 192 176 155 138 117 103 96 90
311 309 306 305 305 304 301 299 294 290 285 277 269 262 255 250 246 242 237 235 235 235 236 236 235 235 240 242 239 239 232 220 212 215 207 192 181 166 157 146 130 112 97
310 307 307 307 306 303 300 298 295 291 286 280 272 263 256 249 244 239 236 234 233 234 232 231 230 224 227 232 238 240 240 226 214 212 210 201 188 174 173 163 144 123 96
308 307 308 307 306 304 302 299 295 291 287 283 274 266 258 251 240 227 229 235 232 232 232 230 227 215 215 218 228 235 241 236 222 216 216 210 199 188 175 161 151 149 133
308 307 307 307 306 305 303 302 298 294 290 285 277 269 261 253 243 219 216 232 233 231 230 228 229 218 203 213 213 220 233 241 243 236 234 230 209 193 177 171 172 170 146
308 308 309 308 306 305 303 301 298 296 291 286 279 271 264 253 230 212 207 225 232 229 229 227 227 229 211 208 209 209 216 222 225 229 239 243 235 201 186 178 160 124 114
309 311 310 310 307 305 304 301 299 296 291 286 277 270 263 252 225 202 200 222 225 227 227 226 223 223 204 193 216 217 216 219 220 223 234 255 271 203 176 160 148 143 136
312 311 310 309 307 304 304 303 301 298 291 288 280 271 261 248 219 196 200 218 221 222 221 224 222 227 195 187 216 222 222 219 211 209 217 227 224 188 172 175 167 161 150
311 309 310 310 308 306 306 306 304 301 295 289 282 272 262 246 209 192 196 214 217 221 222 218 213 190 199 198 220 230 228 225 215 211 208 209 205 195 187 185 178 172 167
311 310 311 313 312 312 312 310 309 307 303 298 287 277 260 226 201 188 193 214 237 233 234 233 204 171 186 197 215 229 220 223 227 216 210 204 197 189 186 181 173 167 163
313 311 312 315 314 315 316 317 318 316 309 304 291 276 249 213 187 181 192 204 221 236 242 251 136 159 183 204 217 219 218 224 225 219 215 204 192 178 167 153 136 118 108
314 314 314 316 317 320 320 322 323 321 317 315 305 287 249 214 198 192 199 203 209 224 236 211 182 188 223 242 212 211 223 227 223 221 212 195 174 166 162 152 145 137 130
315 314 315 318 319 318 322 329 329 336 341 323 315 306 283 234 182 169 222 212 214 214 215 216 215 212 215 220 222 222 222 219 218 217 201 185 172 164 158 153 151 150 149
317 316 317 319 319 319 324 332 351 321 356 350 334 322 319 11 24 323 256 266 257 187 215 220 219 219 221 221 221 220 220 220 215 204 190 180 170 162 156 154 157 158 156
316 314 314 317 318 321 327 333 342 11 153 106 41 4 333 334 301 226 203 193 193 194 220 227 224 223 224 223 221 221 218 215 208 195 182 175 165 160 157 158 162 161 159
317 312 309 313 316 320 328 334 343 350 357 36 103 70 37 359 204 189 178 184 196 208 226 231 229 228 228 226 222 219 215 206 199 189 178 170 163 160 159 162 165 164 161
317 317 318 315 315 321 330 339 351 358 0 5 18 107 123 148 160 176 200 228 220 211 222 234 237 235 230 225 218 211 208 201 193 183 173 167 162 160 161 163 163 162 161
315 309 308 308 313 325 337 351 358 1 2 6 3 11 94 211 193 184 218 238 234 226 227 232 236 240 234 222 210 201 197 192 185 177 168 164 161 161 161 160 158 161 163
316 313 305 301 316 331 339 352 355 354 359 5 14 25 343 295 264 231 240 242 245 242 239 243 242 239 230 212 198 189 185 180 175 167 162 162 159 157 158 157 159 162 162
317 314 313 314 318 327 333 341 353 360 359 355 2 94 269 284 304 285 275 270 268 269 266 255 250 235 213 188 173 171 169 164 162 157 156 152 148 150 152 155 159 163 163
323 321 317 313 312 314 313 343 0 6 4 357 355 3 338 334 343 331 307 301 299 296 267 236 226 190 153 146 150 154 152 150 152 152 150 147 147 149 153 157 161 162 165
329 329 326 322 321 326 338 356 9 15 23 18 0 356 1 3 3 358 343 347 8 32 86 129 153 143 138 135 137 142 142 145 149 151 148 145 145 148 151 156 160 163 166
336 338 334 329 329 331 341 4 21 30 37 27 4 354 7 7 5 1 3 24 42 60 78 99 120 134 139 136 131 128 125 132 144 146 146 144 144 146 150 154 158 160 161
341 343 340 337 335 334 341 3 24 39 57 51 16 12 20 19 31 45 63 74 83 90 97 105 120 126 130 125 119 116 116 119 124 133 140 140 142 144 148 151 153 157 157
Height
1479 1475 1471 1468 1466 1463 1460 1458 1456 1454 1453 1452 1452 1451 1451 1451 1451 1451 1451 1451 1451 1451 1452 1453 1455 1459 1463 1465 1468 1470 1472 1474 1476 1478 1479 1479 1479 1480 1481 1482 1483 1484 1486
1474 1469 1465 1461 1458 1455 1453 1450 1448 1446 1444 1443 1443 1443 1443 1444 1444 1444 1444 1445 1445 1445 1445 1446 1448 1451 1454 1458 1461 1464 1466 1468 1471 1474 1475 1476 1476 1477 1479 1480 1481 1482 1483
1468 1464 1459 1455 1452 1448 1445 1442 1439 1437 1435 1434 1433 1433 1434 1435 1436 1436 1437 1438 1439 1439 1440 1440 1441 1443 1445 1449 1453 1457 1460 1462 1465 1468 1471 1473 1474 1474 1476 1477 1479 1480 1481
1463 1458 1454 1450 1446 1441 1437 1434 1431 1428 1426 1424 1423 1423 1424 1425 1426 1428 1429 1431 1432 1433 1433 1434 1435 1436 1438 1441 1444 1449 1453 1456 1459 1462 1466 1468 1470 1471 1473 1474 1476 1479 1480
1457 1452 1448 1443 1439 1435 1430 1427 1423 1420 1417 1415 1413 1413 1413 1415 1416 1418 1421 1423 1425 1426 1427 1428 1429 1430 1432 1434 1436 1440 1445 1449 1452 1456 1460 1463 1465 1467 1469 1471 1474 1476 1479
1451 1447 1442 1437 1432 1428 1423 1419 1415 1411 1408 1405 1403 1402 1403 1404 1406 1409 1412 1415 1417 1419 1420 1422 1423 1424 1425 1428 1430 1432 1437 1441 1445 1450 1454 1457 1460 1462 1465 1467 1470 1473 1477
1446 1441 1436 1431 1426 1421 1416 1412 1407 1403 1400 1396 1394 1393 1392 1393 1396 1399 1402 1406 1410 1412 1413 1415 1418 1419 1420 1422 1424 1427 1429 1433 1439 1443 1448 1451 1455 1458 1460 1463 1467 1471 1473
1441 1436 1430 1425 1419 1414 1409 1403 1399 1394 1391 1387 1384 1383 1382 1383 1386 1389 1393 1398 1402 1404 1407 1409 1411 1414 1416 1418 1420 1422 1424 1427 1432 1437 1441 1446 1450 1453 1456 1460 1463 1467 1471
1436 1430 1425 1419 1412 1406 1401 1395 1390 1386 1382 1378 1375 1373 1373 1374 1377 1381 1385 1390 1394 1397 1400 1403 1405 1408 1411 1413 1415 1418 1420 1422 1426 1430 1435 1440 1444 1448 1452 1455 1458 1462 1467
1430 1425 1419 1413 1406 1400 1394 1388 1383 1378 1374 1370 1367 1366 1365 1366 1369 1373 1378 1383 1387 1391 1394 1397 1400 1403 1405 1407 1410 1413 1415 1417 1421 1425 1429 1433 1438 1442 1446 1450 1453 1457 1462
1425 1419 1413 1407 1401 1395 1389 1383 1377 1372 1367 1364 1361 1359 1359 1360 1363 1367 1372 1377 1381 1385 1389 1392 1394 1397 1399 1402 1405 1408 1410 1413 1416 1419 1422 1427 1432 1436 1440 1445 1449 1453 1457
1420 1414 1409 1403 1397 1391 1384 1379 1373 1368 1363 1359 1357 1356 1355 1356 1359 1362 1367 1372 1377 1380 1384 1387 1389 1391 1394 1397 1400 1402 1405 1407 1410 1412 1417 1420 1424 1430 1435 1440 1444 1449 1454
1415 1410 1404 1399 1393 1387 1381 1375 1370 1365 1361 1358 1355 1354 1353 1354 1357 1360 1364 1368 1372 1376 1379 1382 1384 1386 1389 1392 1394 1397 1399 1401 1404 1406 1410 1413 1418 1424 1430 1435 1440 1445 1450
1411 1406 1401 1395 1390 1384 1378 1373 1368 1363 1360 1357 1354 1353 1352 1353 1355 1357 1360 1364 1368 1371 1374 1377 1379 1382 1384 1387 1389 1391 1392 1395 1397 1401 1404 1408 1413 1419 1424 1429 1434 1440 1446
1408 1403 1398 1393 1387 1381 1377 1372 1367 1362 1359 1356 1354 1353 1352 1353 1354 1355 1358 1362 1365 1368 1370 1373 1375 1377 1379 1382 1384 1385 1387 1389 1391 1395 1399 1403 1407 1413 1418 1424 1430 1436 1443
1404 1399 1395 1390 1385 1380 1375 1371 1366 1362 1358 1356 1354 1353 1352 1352 1352 1354 1356 1359 1361 1364 1367 1369 1370 1372 1374 1376 1378 1379 1381 1383 1385 1389 1393 1397 1402 1408 1414 1420 1427 1433 1440
1402 1397 1393 1388 1383 1378 1374 1370 1366 1362 1358 1356 1354 1353 1352 1352 1352 1353 1354 1356 1358 1360 1363 1364 1366 1368 1369 1371 1372 1374 1375 1377 1380 1383 1387 1392 1397 1403 1410 1417 1424 1431 1438
1399 1395 1391 1387 1382 1378 1374 1369 1366 1362 1359 1357 1355 1353 1352 1352 1352 1352 1353 1355 1356 1357 1359 1361 1362 1363 1365 1366 1367 1368 1370 1372 1375 1378 1383 1387 1393 1399 1406 1414 1421 1429 1436
1397 1393 1389 1385 1381 1378 1374 1370 1366 1362 1359 1357 1355 1354 1352 1351 1351 1351 1352 1353 1354 1355 1356 1357 1358 1359 1361 1362 1362 1364 1366 1368 1371 1374 1379 1384 1389 1396 1404 1412 1420 1428 1435
1394 1391 1387 1384 1381 1377 1373 1370 1366 1363 1360 1358 1356 1355 1353 1352 1352 1351 1351 1352 1352 1353 1353 1354 1355 1355 1356 1357 1358 1360 1362 1364 1367 1371 1376 1381 1388 1395 1402 1410 1418 1426 1435
1392 1389 1385 1382 1380 1377 1374 1370 1367 1364 1361 1358 1357 1355 1353 1353 1352 1351 1351 1350 1351 1351 1351 1351 1352 1352 1352 1352 1354 1355 1358 1361 1365 1368 1373 1380 1387 1394 1402 1410 1418 1426 1434
1391 1387 1384 1382 1379 1376 1374 1371 1368 1364 1362 1360 1358 1356 1354 1353 1352 1351 1350 1350 1349 1349 1348 1348 1349 1349 1349 1349 1350 1353 1356 1359 1363 1367 1373 1379 1386 1395 1403 1411 1418 1426 1433
1390 1386 1383 1381 1378 1376 1373 1371 1368 1365 1363 1361 1359 1357 1356 1354 1353 1351 1350 1349 1348 1347 1346 1346 1346 1347 1347 1348 1349 1352 1355 1359 1363 1368 1374 1381 1388 1396 1404 1411 1419 1426 1433
1390 1386 1383 1380 1378 1376 1374 1371 1369 1366 1364 1362 1360 1359 1357 1356 1354 1352 1350 1349 1347 1346 1345 1345 1346 1346 1347 1349 1351 1355 1358 1363 1367 1373 1379 1385 1392 1399 1407 1414 1421 1427 1433
1390 1386 1382 1380 1378 1376 1374 1372 1370 1368 1366 1364 1363 1361 1360 1358 1356 1354 1352 1350 1349 1348 1347 1347 1347 1348 1350 1352 1356 1359 1363 1368 1373 1378 1384 1390 1396 1403 1409 1415 1421 1427 1433
1390 1386 1383 1380 1378 1376 1375 1373 1371 1370 1369 1367 1365 1363 1362 1360 1359 1358 1356 1354 1353 1352 1352 1352 1352 1353 1355 1358 1362 1366 1369 1374 1379 1384 1390 1395 1400 1406 1411 1417 1422 1428 1433